Terminal Aerodrome Forecast
Issued by NWS

Home | Current Version | Previous Version | Text Only | Print | Product List | Glossary On
Versions: 1 2 3 4 5 6 7 8 9 10 11 12 13 14 15 16 17
000
FTUS43 KPAH 011100
TAFCGI
TAF
KCGI 011137Z 0112/0212 18012G20KT 3SM -RA BR OVC020
      TEMPO 0113/0117 1 1/2SM -RA BR OVC007
     FM020000 28015G23KT P6SM OVC015=

USA.gov is the U.S. government's official web portal to all federal, state and local government web resources and services.